{"data":{"norad_id":47936,"epoch":"2026-09-20T22:30:00.522720Z","epoch_age_seconds":47103,"freshness":"FRESH","line1":"1 47936U 21022E   26263.93750605  .00000662  00000+0  59485-4 0  9998","line2":"2 47936  97.5208 144.0846 0010956 349.4105  10.6886 14.98865642300247","mean_motion":14.98865642,"eccentricity":0.0010956,"inclination_deg":97.5208,"raan_deg":144.0846,"arg_perigee_deg":349.4105,"mean_anomaly_deg":10.6886,"bstar":5.9485e-5,"rev_number":30024,"period_min":96.072653855655,"perigee_km":562.78713846703,"apogee_km":578.01277264405,"semimajor_km":6948.5369555555,"source":"CELESTRAK","updated_at":"2026-09-21T09:00:07.621059Z"}}